Weather History for Okeechobee, FL

Change the Weather History Date:

Tuesday, April 16, 2013

  Actual Average Record
Temperature  
Mean Temperature 76 °F -  
Max Temperature 87 °F 82 °F 89 °F (2011)
Min Temperature 66 °F 62 °F 47 °F (1950)
Cooling Degree Days 12    
Growing Degree Days 26 (Base 50)    
Moisture  
Dew Point 70 °F    
Average Humidity 84    
Maximum Humidity 100    
Minimum Humidity 58    
Precipitation  
Precipitation 0.00 in - - ()
Sea Level Pressure  
Sea Level Pressure 30.10 in    
Wind  
Wind Speed 4 mph (NE)    
Max Wind Speed 17 mph    
Max Gust Speed 24 mph    
Visibility 9 miles    
Events      
Averages and records for this station are not official NWS values.
T = Trace of Precipitation, MM = Missing Value Source: NWS Daily Summary

Daily Weather History Graph

Daily Weather History Graph

Search for Another Location

Airport:

Trip Planner

Search our weather history database for the weather conditions in past years. The results will help you decide how hot, cold, wet, or windy it might be!

Date:

Astronomy

Apr. 16, 2013 Rise Set
Actual Time 6:57 AM EDT 7:48 PM EDT
Civil Twilight 6:34 AM EDT 8:12 PM EDT
Nautical Twilight 6:05 AM EDT 8:40 PM EDT
Astronomical Twilight 5:37 AM EDT 9:09 PM EDT
Moon 11:28 AM EDT (4/16) 12:30 AM EDT (4/16)
Length of Visible Light 13h 38m
Length of Day
12h 50m
Waxing Crescent, 33% of the Moon is Illuminated
Apr 16
Waxing Crescent
Apr 18
First Quarter
Apr 25
Full
May 2
Last Quarter
May 9
New

Hourly Weather History & Observations

Time (EDT) Temp. Heat Index Dew Point Humidity Pressure Visibility Wind Dir Wind Speed Gust Speed Precip Events Conditions
12:15 AM 69.8 °F - 69.8 °F 100% 30.08 in 10.0 mi Calm Calm - N/A   Clear
12:35 AM 69.8 °F - 69.8 °F 100% 30.07 in 10.0 mi Calm Calm - N/A   Clear
12:55 AM 69.8 °F - 69.8 °F 100% 30.07 in 10.0 mi Calm Calm - N/A   Mostly Cloudy
1:15 AM 69.8 °F - 69.8 °F 100% 30.07 in 10.0 mi Calm Calm - N/A   Overcast
1:35 AM 69.8 °F - 69.8 °F 100% 30.07 in 10.0 mi Calm Calm - N/A   Overcast
1:55 AM 69.8 °F - 69.8 °F 100% 30.07 in 10.0 mi Calm Calm - N/A   Overcast
2:15 AM 69.8 °F - 69.8 °F 100% 30.06 in 10.0 mi North 3.5 mph - N/A   Scattered Clouds
2:35 AM 69.8 °F - 69.8 °F 100% 30.06 in 10.0 mi North 3.5 mph - N/A   Clear
2:55 AM 69.8 °F - 69.8 °F 100% 30.06 in 10.0 mi North 5.8 mph - N/A   Clear
3:15 AM 69.8 °F - 69.8 °F 100% 30.06 in 5.0 mi North 3.5 mph - N/A   Clear
3:35 AM 69.8 °F - 69.8 °F 100% 30.06 in 5.0 mi NNE 4.6 mph - N/A   Clear
3:55 AM 69.8 °F - 69.8 °F 100% 30.06 in 7.0 mi Calm Calm - N/A   Clear
4:15 AM 69.8 °F - 69.8 °F 100% 30.05 in 7.0 mi Calm Calm - N/A   Clear
4:35 AM 69.8 °F - 69.8 °F 100% 30.05 in 5.0 mi Calm Calm - N/A   Clear
4:55 AM 69.8 °F - 69.8 °F 100% 30.06 in 4.0 mi Calm Calm - N/A   Clear
5:15 AM 68.0 °F - 68.0 °F 100% 30.06 in 7.0 mi Calm Calm - N/A   Clear
5:35 AM 68.0 °F - 68.0 °F 100% 30.06 in 5.0 mi Calm Calm - N/A   Clear
5:55 AM 68.0 °F - 68.0 °F 100% 30.07 in 7.0 mi Calm Calm - N/A   Clear
6:15 AM 68.0 °F - 68.0 °F 100% 30.07 in 5.0 mi Calm Calm - N/A   Clear
6:35 AM 68.0 °F - 68.0 °F 100% 30.07 in 2.5 mi Calm Calm - N/A   Clear
6:55 AM 68.0 °F - 68.0 °F 100% 30.08 in 0.8 mi Calm Calm - N/A   Unknown
7:15 AM 66.2 °F - 66.2 °F 100% 30.09 in 3.0 mi North 3.5 mph - N/A   Clear
7:35 AM 68.0 °F - 68.0 °F 100% 30.10 in 3.0 mi Calm Calm - N/A   Clear
7:55 AM 69.8 °F - 69.8 °F 100% 30.11 in 3.0 mi Calm Calm - N/A   Clear
8:15 AM 71.6 °F - 71.6 °F 100% 30.11 in 5.0 mi NE 3.5 mph - N/A   Clear
8:35 AM 73.4 °F - 71.6 °F 94% 30.12 in 7.0 mi NE 5.8 mph - N/A   Clear
8:55 AM 75.2 °F - 73.4 °F 94% 30.12 in 10.0 mi NE 6.9 mph - N/A   Clear
9:15 AM 77.0 °F - 73.4 °F 89% 30.12 in 10.0 mi NE 6.9 mph - N/A   Clear
9:35 AM 78.8 °F - 73.4 °F 83% 30.12 in 10.0 mi ENE 8.1 mph - N/A   Clear
9:55 AM 80.6 °F 85.4 °F 73.4 °F 79% 30.12 in 10.0 mi ENE 6.9 mph - N/A   Scattered Clouds
10:15 AM 80.6 °F 85.4 °F 73.4 °F 79% 30.13 in 10.0 mi ENE 6.9 mph - N/A   Scattered Clouds
10:35 AM 82.4 °F 88.2 °F 73.4 °F 74% 30.13 in 10.0 mi ENE 8.1 mph - N/A   Scattered Clouds
10:55 AM 82.4 °F 88.2 °F 73.4 °F 74% 30.13 in 10.0 mi ENE 5.8 mph - N/A   Scattered Clouds
11:15 AM 82.4 °F 87.2 °F 71.6 °F 70% 30.13 in 10.0 mi ENE 4.6 mph - N/A   Scattered Clouds
11:35 AM 86.0 °F 91.8 °F 71.6 °F 62% 30.13 in 10.0 mi ENE 5.8 mph - N/A   Scattered Clouds
11:55 AM 86.0 °F 91.8 °F 71.6 °F 62% 30.13 in 10.0 mi NE 6.9 mph - N/A   Scattered Clouds
12:15 PM 86.0 °F 91.8 °F 71.6 °F 62% 30.13 in 10.0 mi NE 8.1 mph - N/A   Mostly Cloudy
12:35 PM 84.2 °F 89.6 °F 71.6 °F 66% 30.13 in 10.0 mi ENE 10.4 mph - N/A   Mostly Cloudy
12:55 PM 82.4 °F 88.2 °F 73.4 °F 74% 30.12 in 10.0 mi NE 6.9 mph - N/A   Mostly Cloudy
1:15 PM 86.0 °F 93.4 °F 73.4 °F 66% 30.12 in 10.0 mi ENE 8.1 mph - N/A   Scattered Clouds
1:35 PM 87.8 °F 93.8 °F 71.6 °F 58% 30.11 in 10.0 mi ENE 10.4 mph 17.3 mph N/A   Mostly Cloudy
1:55 PM 84.2 °F 89.6 °F 71.6 °F 66% 30.11 in 10.0 mi NNE 12.7 mph 18.4 mph N/A   Mostly Cloudy
2:15 PM 84.2 °F 89.6 °F 71.6 °F 66% 30.10 in 10.0 mi NE 9.2 mph 17.3 mph N/A   Overcast
2:35 PM 82.4 °F 87.2 °F 71.6 °F 70% 30.10 in 10.0 mi ENE 9.2 mph 18.4 mph N/A   Overcast
2:55 PM 82.4 °F 87.2 °F 71.6 °F 70% 30.10 in 10.0 mi NE 16.1 mph 20.7 mph N/A   Overcast
3:15 PM 86.0 °F 91.8 °F 71.6 °F 62% 30.09 in 10.0 mi ENE 17.3 mph 24.2 mph N/A   Mostly Cloudy
3:35 PM 86.0 °F 91.8 °F 71.6 °F 62% 30.09 in 10.0 mi NE 10.4 mph 17.3 mph N/A   Mostly Cloudy
3:55 PM 82.4 °F 87.2 °F 71.6 °F 70% 30.09 in 10.0 mi NE 9.2 mph 18.4 mph N/A   Mostly Cloudy
4:15 PM 86.0 °F 90.4 °F 69.8 °F 58% 30.09 in 10.0 mi ENE 15.0 mph 19.6 mph N/A   Mostly Cloudy
4:35 PM 86.0 °F 90.4 °F 69.8 °F 58% 30.09 in 10.0 mi ENE 12.7 mph 19.6 mph N/A   Scattered Clouds
5:15 PM 84.2 °F 87.3 °F 68.0 °F 58% 30.09 in 10.0 mi NE 10.4 mph 16.1 mph N/A   Scattered Clouds
5:35 PM 82.4 °F 85.4 °F 68.0 °F 62% 30.10 in 10.0 mi ENE 11.5 mph 17.3 mph N/A   Scattered Clouds
5:55 PM 82.4 °F 85.4 °F 68.0 °F 62% 30.10 in 10.0 mi NE 12.7 mph 21.9 mph N/A   Scattered Clouds
6:15 PM 82.4 °F 84.6 °F 66.2 °F 58% 30.11 in 10.0 mi NE 12.7 mph 19.6 mph N/A   Scattered Clouds
6:35 PM 80.6 °F 83.2 °F 68.0 °F 65% 30.11 in 10.0 mi NE 11.5 mph 16.1 mph N/A   Clear
6:55 PM 80.6 °F 83.2 °F 68.0 °F 65% 30.11 in 10.0 mi NE 10.4 mph 17.3 mph N/A   Clear
7:15 PM 78.8 °F - 68.0 °F 69% 30.12 in 10.0 mi NE 10.4 mph 17.3 mph N/A   Clear
7:35 PM 77.0 °F - 69.8 °F 78% 30.12 in 10.0 mi ENE 9.2 mph - N/A   Clear
7:55 PM 77.0 °F - 69.8 °F 78% 30.12 in 10.0 mi NE 8.1 mph - N/A   Clear
8:15 PM 75.2 °F - 69.8 °F 83% 30.12 in 10.0 mi NE 6.9 mph - N/A   Clear
8:35 PM 73.4 °F - 69.8 °F 88% 30.13 in 10.0 mi NE 8.1 mph - N/A   Clear
8:55 PM 73.4 °F - 69.8 °F 88% 30.14 in 10.0 mi NE 8.1 mph - N/A   Clear
9:15 PM 73.4 °F - 69.8 °F 88% 30.14 in 10.0 mi NE 4.6 mph - N/A   Scattered Clouds
9:35 PM 71.6 °F - 69.8 °F 94% 30.14 in 10.0 mi NE 5.8 mph - N/A   Scattered Clouds
9:55 PM 71.6 °F - 68.0 °F 88% 30.15 in 10.0 mi NE 4.6 mph - N/A   Clear
10:15 PM 71.6 °F - 68.0 °F 88% 30.16 in 10.0 mi NE 4.6 mph - N/A   Clear
10:35 PM 71.6 °F - 68.0 °F 88% 30.16 in 10.0 mi NNE 4.6 mph - N/A   Clear
10:55 PM 69.8 °F - 68.0 °F 94% 30.16 in 10.0 mi NNE 3.5 mph - N/A   Clear
11:15 PM 69.8 °F - 68.0 °F 94% 30.15 in 10.0 mi NNE 4.6 mph - N/A   Clear
11:35 PM 69.8 °F - 68.0 °F 94% 30.15 in 10.0 mi NNE 4.6 mph - N/A   Clear
11:55 PM 69.8 °F - 68.0 °F 94% 30.15 in 10.0 mi Calm Calm - N/A   Clear